This demonstration page uses our WeatherBlox Daily Observations layout. Learn more.

Hourly Observations for June 2, 2020

Temp ( °F °C ) Dew Point ( °F °C ) Humidity (%) Winds ( mph kmh ) Pressure ( in mb ) Visibility ( mi km ) Precip ( " mm )
12:15 am 00:15 Clear 57 14 46 8 67 67 SSW 5 7 30.19 1022 10 16.0934 0 0
12:35 am 00:35 Clear 54 12 48 9 82 82 SSW 3 6 30.19 1022 10 16.0934 0 0
12:55 am 00:55 Clear 54 12 46 8 77 77 S 3 6 30.18 1022 10 16.0934 0 0
1:15 am 01:15 Clear 54 12 46 8 77 77 Calm 30.18 1022 10 16.0934 0 0
1:35 am 01:35 Clear 52 11 46 8 82 82 Calm 30.18 1022 10 16.0934 0 0
1:55 am 01:55 Clear 52 11 50 10 94 94 Calm 30.16 1021 10 16.0934 0 0
2:15 am 02:15 Clear 52 11 46 8 82 82 Calm 30.16 1021 10 16.0934 0 0
2:35 am 02:35 Clear 52 11 46 8 82 82 Calm 30.16 1021 10 16.0934 0 0
2:55 am 02:55 Clear 54 12 48 9 82 82 Calm 30.16 1021 10 16.0934 0 0
3:15 am 03:15 Clear 50 10 46 8 88 88 Calm 30.17 1022 10 16.0934 0 0
3:35 am 03:35 Clear 50 10 48 9 94 94 Calm 30.17 1022 10 16.0934 0 0
3:55 am 03:55 Clear 52 11 48 9 88 88 Calm 30.15 1021 10 16.0934 0 0
4:15 am 04:15 Clear 52 11 48 9 88 88 Calm 30.15 1021 10 16.0934 0 0
4:35 am 04:35 Partly Cloudy 52 11 50 10 94 94 Calm 30.15 1021 10 16.0934 0 0
4:55 am 04:55 Partly Cloudy 52 11 48 9 88 88 Calm 30.15 1021 10 16.0934 0 0
5:15 am 05:15 Partly Cloudy 54 12 48 9 82 82 S 3 6 30.15 1021 10 16.0934 0 0
5:35 am 05:35 Clear 54 12 48 9 82 82 SSW 3 6 30.15 1021 10 16.0934 0 0
5:55 am 05:55 Sunny 52 11 50 10 94 94 Calm 30.15 1021 10 16.0934 0 0
6:15 am 06:15 Partly Cloudy 54 12 50 10 88 88 Calm 30.14 1021 10 16.0934 0 0
6:35 am 06:35 Mostly Cloudy 55 13 50 10 82 82 Calm 30.14 1021 10 16.0934 0 0
6:55 am 06:55 Mostly Cloudy 55 13 50 10 82 82 SSW 3 6 30.14 1021 10 16.0934 0 0
7:15 am 07:15 Mostly Cloudy 54 12 50 10 88 88 Calm 30.14 1021 10 16.0934 0 0
7:35 am 07:35 Cloudy 55 13 50 10 82 82 W 3 6 30.14 1021 10 16.0934 0 0
7:55 am 07:55 Cloudy 55 13 52 11 88 88 Calm 30.15 1021 10 16.0934 0 0
8:15 am 08:15 Cloudy 57 14 52 11 82 82 Calm 30.15 1021 10 16.0934 0 0
8:35 am 08:35 Cloudy 57 14 52 11 82 82 Calm 30.15 1021 10 16.0934 0 0
8:55 am 08:55 Cloudy 59 15 52 11 77 77 Calm 30.15 1021 10 16.0934 0 0
9:15 am 09:15 Cloudy 59 15 54 12 82 82 Calm 30.14 1021 10 16.0934 0 0
9:35 am 09:35 Cloudy 59 15 54 12 82 82 Calm 30.14 1021 10 16.0934 0 0
9:55 am 09:55 Cloudy 61 16 54 12 77 77 ESE 5 7 30.13 1020 10 16.0934 0 0
10:15 am 10:15 Cloudy 61 16 54 12 77 77 Calm 30.12 1020 10 16.0934 0 0
10:35 am 10:35 Mostly Cloudy 63 17 54 12 73 73 Calm 30.11 1019 10 16.0934 0 0
10:55 am 10:55 Mostly Cloudy 63 17 55 13 77 77 Calm 30.11 1019 10 16.0934 0 0
11:15 am 11:15 Mostly Cloudy 66 19 54 12 64 64 Calm 30.09 1019 10 16.0934 0 0
11:35 am 11:35 Partly Cloudy 68 20 52 11 56 56 Calm 30.08 1019 10 16.0934 0 0
11:55 am 11:55 Partly Cloudy 70 21 52 11 53 53 Calm 30.08 1019 10 16.0934 0 0
12:15 pm 12:15 Mostly Cloudy 68 20 46 8 46 46 Calm 30.07 1018 10 16.0934 0 0
12:35 pm 12:35 Cloudy 70 21 48 9 46 46 Calm 30.07 1018 10 16.0934 0 0
12:55 pm 12:55 Cloudy 70 21 46 8 43 43 S 5 7 30.06 1018 10 16.0934 0 0
1:15 pm 13:15 Cloudy 72 22 50 10 47 47 SSE 6 9 30.04 1017 10 16.0934 0 0
1:35 pm 13:35 Cloudy 72 22 50 10 47 47 SSW 6 9 30.03 1017 10 16.0934 0 0
1:55 pm 13:55 Mostly Cloudy 73 23 46 8 38 38 S 9 15 30.01 1016 10 16.0934 0 0
2:15 pm 14:15 Cloudy 73 23 46 8 38 38 S 12 19 30 1016 10 16.0934 0 0
2:35 pm 14:35 Partly Cloudy 73 23 46 8 38 38 S 8 13 29.99 1015 10 16.0934 0 0
2:55 pm 14:55 Partly Cloudy 75 24 46 8 36 36 SSE 12 19 29.98 1015 10 16.0934 0 0
3:15 pm 15:15 Partly Cloudy 77 25 50 10 39 39 S 12 19 29.96 1015 10 16.0934 0 0
3:35 pm 15:35 Partly Cloudy 79 26 48 9 34 34 S 13 20 29.94 1014 10 16.0934 0 0
3:55 pm 15:55 Sunny 79 26 50 10 37 37 SSW 13 20 29.93 1014 10 16.0934 0 0
4:15 pm 16:15 Sunny 79 26 50 10 37 37 SSW 9 15 29.92 1013 10 16.0934 0 0
4:35 pm 16:35 Partly Cloudy 81 27 50 10 34 34 S 10 17 29.91 1013 10 16.0934 0 0
4:55 pm 16:55 Partly Cloudy 81 27 50 10 34 34 S 13 20 29.9 1013 10 16.0934 0 0
5:15 pm 17:15 Sunny 81 27 52 11 37 37 S 9 15 29.89 1012 10 16.0934 0 0
5:35 pm 17:35 Sunny 81 27 52 11 37 37 SW 9 15 29.88 1012 10 16.0934 0 0
5:55 pm 17:55 Sunny 81 27 52 11 37 37 SW 9 15 29.88 1012 10 16.0934 0 0
6:15 pm 18:15 Sunny 81 27 54 12 39 39 SSW 7 11 29.87 1012 10 16.0934 0 0
6:35 pm 18:35 Sunny 81 27 54 12 39 39 SSW 8 13 29.86 1011 10 16.0934 0 0
6:55 pm 18:55 Sunny 81 27 54 12 39 39 SSW 8 13 29.86 1011 10 16.0934 0 0
7:15 pm 19:15 Sunny 81 27 55 13 42 42 SSW 6 9 29.86 1011 10 16.0934 0 0
7:35 pm 19:35 Sunny 79 26 55 13 45 45 SSW 5 7 29.86 1011 10 16.0934 0 0
7:55 pm 19:55 Sunny 79 26 57 14 48 48 SW 5 7 29.86 1011 10 16.0934 0 0
8:15 pm 20:15 Mostly Cloudy 77 25 57 14 51 51 SSW 5 7 29.86 1011 10 16.0934 0 0
8:35 pm 20:35 Cloudy 77 25 57 14 51 51 SW 5 7 29.86 1011 10 16.0934 0 0
8:55 pm 20:55 Mostly Cloudy 75 24 57 14 54 54 SW 3 6 29.87 1011 10 16.0934 0 0
9:15 pm 21:15 Mostly Cloudy 73 23 59 15 61 61 SW 3 6 29.87 1011 10 16.0934 0 0
9:35 pm 21:35 Partly Cloudy 73 23 57 14 57 57 SW 3 6 29.87 1011 10 16.0934 0 0
9:55 pm 21:55 Clear 73 23 57 14 57 57 SSW 5 7 29.88 1012 10 16.0934 0 0
10:15 pm 22:15 Clear 72 22 57 14 61 61 SW 6 9 29.88 1012 10 16.0934 0 0
10:35 pm 22:35 Clear 72 22 57 14 61 61 WSW 7 11 29.87 1011 10 16.0934 0 0
10:55 pm 22:55 Clear 72 22 59 15 65 65 SW 6 9 29.87 1011 10 16.0934 0 0
11:15 pm 23:15 Clear 72 22 57 14 61 61 SSW 6 9 29.86 1011 10 16.0934 0 0
11:35 pm 23:35 Clear 70 21 59 15 69 69 SSW 7 11 29.85 1011 10 16.0934 0 0
11:55 pm 23:55 Clear 70 21 59 15 69 69 SW 5 7 29.84 1010 10 16.0934 0 0

Powered by AerisWeather